GFSFLT2_prec_snow_141.txt.gz
Snowfall_Accumulation
1.1 0.0 0.0 0.0 0.0 0.0 0.0 0.0 0.0 0.0 0.0 0.0 0.0 0.0 0.0 0.0 0.0 0.0 0.0 0.0 0.0 0.0 0.0 0.0 0.0 0.0 0.0
0.1 0.0 0.0 0.0 0.0 0.0 0.0 0.0 0.0 0.0 0.0 0.0 0.0 0.0 0.0 0.0 0.1 0.0 0.0 0.0 0.0 0.0 0.0 0.0 0.0 0.0 0.0
0.1 0.0 0.0 0.0 0.0 0.0 0.0 0.0 0.0 0.0 0.0 0.0 0.0 0.0 0.0 0.0 0.0 0.4 0.2 0.0 0.0 0.0 0.0 0.0 0.0 0.0 0.0
0.1 1.2 0.3 0.1 0.4 0.2 0.0 0.0 0.0 0.0 0.0 0.0 0.0 0.0 0.0 0.0 0.0 0.0 0.0 0.0 0.0 0.1 0.0 0.0 0.0 0.0 0.0
2.7 1.7 1.4 0.0 0.0 0.0 0.1 0.0 0.1 0.0 0.0 0.0 0.0 0.0 0.0 0.0 0.0 0.0 0.0 0.1 0.1 0.2 0.2 0.1 0.2 0.0 0.0
4.6 0.9 0.1 0.1 0.0 0.2 1.3 1.3 1.4 0.0 0.2 0.2 0.0 0.0 0.0 0.0 0.0 0.0 0.1 0.2 0.0 0.5 0.6 0.7 0.0 0.0 0.0
0.5 0.3 0.4 0.1 1.9 2.5 1.8 3.3 2.3 0.0 0.3 0.4 0.0 0.0 0.0 0.0 0.0 0.0 0.1 0.1 0.2 0.4 0.7 0.6 0.7 0.0 0.0
0.2 0.4 1.1 0.7 1.4 2.6 3.4 2.0 0.4 0.1 0.3 1.8 0.2 0.1 0.0 0.0 0.0 0.0 0.0 0.2 0.4 0.7 0.7 0.7 0.8 0.6 0.3
0.6 0.5 0.3 0.0 0.0 2.3 2.8 3.1 2.1 0.2 0.1 0.7 0.3 0.4 0.2 0.1 0.0 0.0 0.4 0.1 0.6 0.4 0.6 0.4 0.6 0.3 0.0
0.1 0.1 0.0 0.0 0.0 0.6 5.4 10.4 5.2 3.6 0.1 4.3 1.7 1.4 5.1 2.1 1.7 1.4 0.1 0.0 0.0 0.1 0.3 0.5 0.4 0.7 1.0
0.0 0.0 0.0 0.0 0.2 0.6 2.4 8.9 11.5 7.1 0.2 8.8 10.0 1.2 8.4 5.3 3.5 3.7 2.9 0.1 0.2 0.0 0.0 0.4 0.7 0.8 3.2
0.2 0.2 0.2 0.2 0.2 0.2 0.3 2.2 4.3 8.6 2.8 4.2 17.7 9.4 12.4 8.7 4.8 5.1 2.6 3.9 2.4 1.4 0.6 0.6 0.6 1.2 1.3
1.2 0.5 0.8 1.6 2.3 2.9 5.6 5.6 6.3 7.3 8.6 7.8 11.7 10.5 11.6 10.7 7.6 4.9 6.7 6.1 4.7 6.5 4.5 2.2 3.0 1.7 2.2
3.3 2.8 4.0 5.4 5.7 7.1 10.6 9.2 10.3 8.2 6.5 6.2 7.6 9.1 9.1 5.1 8.4 7.2 5.8 10.6 10.3 9.9 9.6 5.0 1.7 0.9 0.8
3.7 3.9 4.2 6.3 6.7 8.4 11.8 11.2 10.3 7.4 5.8 4.3 3.7 4.0 4.0 5.7 6.6 5.9 8.4 8.3 10.9 14.8 12.5 6.8 5.2 2.2 1.6
5.9 6.3 8.1 8.6 10.4 11.4 11.4 9.9 8.6 5.7 5.0 3.9 3.5 3.1 2.9 2.5 5.7 8.9 7.7 8.8 11.6 13.5 13.4 7.9 7.1 4.2 0.2
8.9 9.0 11.2 12.8 13.1 11.1 8.9 6.8 4.9 3.8 2.0 1.4 3.4 5.9 6.6 2.7 2.6 6.0 12.1 10.7 7.9 8.6 9.0 6.1 7.0 5.9 0.8

GFSFLT2_prec_snow_147.txt.gz
Snowfall_Accumulation
1.1 0.0 0.0 0.0 0.0 0.0 0.0 0.0 0.0 0.0 0.0 0.0 0.0 0.0 0.0 0.0 0.0 0.0 0.0 0.0 0.0 0.0 0.0 0.0 0.0 0.0 0.0
0.1 0.0 0.0 0.0 0.0 0.0 0.0 0.0 0.0 0.0 0.0 0.0 0.0 0.0 0.0 0.0 0.1 0.0 0.0 0.0 0.0 0.0 0.0 0.0 0.0 0.0 0.0
0.1 0.0 0.0 0.0 0.0 0.0 0.0 0.0 0.0 0.0 0.0 0.0 0.0 0.0 0.0 0.0 0.0 0.4 0.2 0.0 0.0 0.0 0.0 0.0 0.0 0.0 0.0
0.1 1.2 0.3 0.1 0.4 0.2 0.0 0.0 0.0 0.0 0.0 0.0 0.0 0.0 0.0 0.0 0.0 0.0 0.0 0.0 0.0 0.1 0.0 0.0 0.0 0.0 0.0
2.7 1.7 1.4 0.0 0.0 0.0 0.1 0.0 0.1 0.0 0.0 0.0 0.0 0.0 0.0 0.0 0.0 0.0 0.0 0.1 0.1 0.2 0.2 0.1 0.2 0.0 0.0
4.6 0.9 0.1 0.1 0.0 0.2 1.3 1.3 1.4 0.0 0.2 0.2 0.0 0.0 0.0 0.0 0.0 0.0 0.1 0.2 0.0 0.5 0.6 0.7 0.0 0.0 0.0
0.5 0.3 0.4 0.1 1.9 2.5 1.8 3.3 2.3 0.0 0.3 0.4 0.0 0.0 0.0 0.0 0.0 0.0 0.1 0.1 0.2 0.4 0.7 0.6 0.7 0.0 0.0
0.2 0.4 1.1 0.7 1.4 2.6 3.4 2.0 0.4 0.1 0.3 1.8 0.2 0.1 0.0 0.0 0.0 0.0 0.0 0.2 0.4 0.7 0.7 0.7 0.8 0.6 0.3
0.6 0.5 0.3 0.0 0.0 2.3 2.8 3.1 2.1 0.2 0.1 0.7 0.3 0.4 0.2 0.1 0.0 0.0 0.4 0.1 0.6 0.4 0.6 0.4 0.6 0.3 0.0
0.1 0.1 0.0 0.0 0.0 0.6 5.4 10.4 5.2 3.6 0.1 4.3 1.7 1.4 5.1 2.1 1.7 1.4 0.1 0.0 0.0 0.1 0.3 0.5 0.4 0.7 1.0
0.0 0.0 0.0 0.0 0.2 0.6 2.4 8.9 11.5 7.1 0.2 8.8 10.0 1.2 8.4 5.3 3.5 3.7 2.9 0.1 0.2 0.0 0.0 0.4 0.7 0.8 3.2
0.2 0.2 0.2 0.2 0.2 0.2 0.3 2.2 4.3 8.6 2.8 4.2 17.7 9.4 12.4 8.7 4.8 5.1 2.6 3.9 2.4 1.4 0.6 0.6 0.6 1.2 1.3
1.2 0.5 0.8 1.6 2.3 2.9 5.6 5.6 6.3 7.3 8.6 7.8 11.7 10.5 11.6 10.7 7.6 4.9 6.7 6.1 4.7 6.5 4.5 2.2 3.0 1.7 2.2
3.3 2.8 4.0 5.4 5.7 7.1 10.6 9.2 10.3 8.2 6.5 6.2 7.6 9.1 9.1 5.1 8.4 7.2 5.8 10.6 10.3 9.9 9.6 5.0 1.7 0.9 0.8
3.7 3.9 4.2 6.3 6.7 8.4 11.8 11.2 10.3 7.4 5.8 6.0 5.7 4.0 4.4 5.7 6.6 5.9 8.4 8.3 10.9 14.8 12.5 6.8 5.2 2.2 1.6
5.9 6.3 8.1 10.0 12.5 13.8 13.9 12.7 11.5 8.2 9.2 6.6 6.7 7.5 6.9 5.6 7.8 10.5 8.9 9.7 12.2 13.9 13.5 7.9 7.1 4.2 0.2
8.9 9.0 11.2 13.8 15.3 13.8 12.5 11.0 9.4 8.0 6.5 6.2 8.4 10.9 11.7 6.8 5.4 7.8 13.3 11.6 8.5 9.0 9.1 6.2 7.0 5.9 0.8

GFSFLT2_prec_snow_150.txt.gz
Snowfall_Accumulation
1.1 0.0 0.0 0.0 0.0 0.0 0.0 0.0 0.0 0.0 0.0 0.0 0.0 0.0 0.0 0.0 0.0 0.0 0.0 0.0 0.0 0.0 0.0 0.0 0.0 0.0 0.0
0.1 0.0 0.0 0.0 0.0 0.0 0.0 0.0 0.0 0.0 0.0 0.0 0.0 0.0 0.0 0.0 0.1 0.0 0.0 0.0 0.0 0.0 0.0 0.0 0.0 0.0 0.0
0.1 0.0 0.0 0.0 0.0 0.0 0.0 0.0 0.0 0.0 0.0 0.0 0.0 0.0 0.0 0.0 0.0 0.4 0.2 0.0 0.0 0.0 0.0 0.0 0.0 0.0 0.0
0.1 1.2 0.3 0.1 0.4 0.2 0.0 0.0 0.0 0.0 0.0 0.0 0.0 0.0 0.0 0.0 0.0 0.0 0.0 0.0 0.0 0.1 0.0 0.0 0.0 0.0 0.0
2.7 1.7 1.4 0.0 0.0 0.0 0.1 0.0 0.1 0.0 0.0 0.0 0.0 0.0 0.0 0.0 0.0 0.0 0.0 0.1 0.1 0.2 0.2 0.1 0.2 0.0 0.0
4.6 0.9 0.1 0.1 0.0 0.2 1.3 1.3 1.4 0.0 0.2 0.2 0.0 0.0 0.0 0.0 0.0 0.0 0.1 0.2 0.0 0.5 0.6 0.7 0.0 0.0 0.0
0.5 0.3 0.4 0.1 1.9 2.5 1.8 3.3 2.3 0.0 0.3 0.4 0.0 0.0 0.0 0.0 0.0 0.0 0.1 0.1 0.2 0.4 0.7 0.6 0.7 0.0 0.0
0.2 0.4 1.1 0.7 1.4 2.6 3.4 2.0 0.4 0.1 0.3 1.8 0.2 0.1 0.0 0.0 0.0 0.0 0.0 0.2 0.4 0.7 0.7 0.7 0.8 0.6 0.3
0.6 0.5 0.3 0.0 0.0 2.3 2.8 3.1 2.1 0.2 0.1 0.7 0.3 0.4 0.2 0.1 0.0 0.0 0.4 0.1 0.6 0.4 0.6 0.4 0.6 0.3 0.0
0.1 0.1 0.0 0.0 0.0 0.6 5.4 10.4 5.2 3.6 0.1 4.3 1.7 1.4 5.1 2.1 1.7 1.4 0.1 0.0 0.0 0.1 0.3 0.5 0.4 0.7 1.0
0.0 0.0 0.0 0.0 0.2 0.6 2.4 8.9 11.5 7.1 0.2 8.8 10.0 1.2 8.4 5.3 3.5 3.7 2.9 0.1 0.2 0.0 0.0 0.4 0.7 0.8 3.2
0.2 0.2 0.2 0.2 0.2 0.2 0.3 2.2 4.3 8.6 2.8 4.2 17.7 9.4 12.4 8.7 4.8 5.1 2.6 3.9 2.4 1.4 0.6 0.6 0.6 1.2 1.3
1.2 0.5 0.8 1.6 2.3 2.9 5.6 5.6 6.3 7.3 8.6 7.8 11.7 10.5 11.6 10.7 7.6 4.9 6.7 6.1 4.7 6.5 4.5 2.2 3.0 1.7 2.2
3.3 2.8 4.0 5.4 5.7 7.1 10.6 9.2 10.3 8.2 6.5 6.2 7.6 9.1 9.1 5.1 8.4 7.2 5.8 10.6 10.3 9.9 9.6 5.0 1.7 0.9 0.8
3.7 3.9 4.2 6.3 6.7 8.4 11.8 11.2 10.3 7.4 5.8 6.0 5.7 4.0 4.4 5.7 8.5 5.9 9.7 8.3 10.9 14.8 12.5 6.8 5.2 2.2 1.6
5.9 6.3 8.1 10.0 12.5 13.8 13.9 12.7 11.5 8.2 9.2 6.6 6.7 7.5 8.0 5.6 9.9 12.4 10.9 11.6 14.2 16.0 13.5 7.9 7.1 4.2 0.2
8.9 9.0 11.2 13.8 15.3 13.8 12.5 11.0 9.4 8.1 6.6 6.3 8.6 10.9 12.7 8.0 7.0 10.0 15.9 14.5 12.0 12.8 12.6 8.8 8.7 7.0 0.8

GFSFLT2_prec_snow_153.txt.gz
Snowfall_Accumulation
1.1 0.0 0.0 0.0 0.0 0.0 0.0 0.0 0.0 0.0 0.0 0.0 0.0 0.0 0.0 0.0 0.0 0.0 0.0 0.0 0.0 0.0 0.0 0.0 0.0 0.0 0.0
0.1 0.0 0.0 0.0 0.0 0.0 0.0 0.0 0.0 0.0 0.0 0.0 0.0 0.0 0.0 0.0 0.1 0.0 0.0 0.0 0.0 0.0 0.0 0.0 0.0 0.0 0.0
0.1 0.0 0.0 0.0 0.0 0.0 0.0 0.0 0.0 0.0 0.0 0.0 0.0 0.0 0.0 0.0 0.0 0.4 0.2 0.0 0.0 0.0 0.0 0.0 0.0 0.0 0.0
0.1 1.2 0.3 0.1 0.4 0.2 0.0 0.0 0.0 0.0 0.0 0.0 0.0 0.0 0.0 0.0 0.0 0.0 0.0 0.0 0.0 0.1 0.0 0.0 0.0 0.0 0.0
2.7 1.7 1.4 0.0 0.0 0.0 0.1 0.0 0.1 0.0 0.0 0.0 0.0 0.0 0.0 0.0 0.0 0.0 0.0 0.1 0.1 0.2 0.2 0.1 0.2 0.0 0.0
4.6 0.9 0.1 0.1 0.0 0.2 1.3 1.3 1.4 0.0 0.2 0.2 0.0 0.0 0.0 0.0 0.0 0.0 0.1 0.2 0.0 0.5 0.6 0.7 0.0 0.0 0.0
0.5 0.3 0.4 0.1 1.9 2.5 1.8 3.3 2.3 0.0 0.3 0.4 0.0 0.0 0.0 0.0 0.0 0.0 0.1 0.1 0.2 0.4 0.7 0.6 0.7 0.0 0.0
0.2 0.4 1.1 0.7 1.4 2.6 3.4 2.0 0.4 0.1 0.3 1.8 0.2 0.1 0.0 0.0 0.0 0.0 0.0 0.2 0.4 0.7 0.7 0.7 0.8 0.6 0.3
0.6 0.5 0.3 0.0 0.0 2.3 2.8 3.1 2.1 0.2 0.1 0.7 0.3 0.4 0.2 0.1 0.0 0.0 0.4 0.1 0.6 0.4 0.6 0.4 0.6 0.3 0.0
0.1 0.1 0.0 0.0 0.0 0.6 5.4 10.4 5.2 3.6 0.1 4.3 1.7 1.4 5.1 2.1 1.7 1.4 0.1 0.0 0.0 0.1 0.3 0.5 0.4 0.7 1.0
0.0 0.0 0.0 0.0 0.2 0.6 2.4 8.9 11.5 7.1 0.2 8.8 10.0 1.2 8.4 5.3 3.5 3.7 2.9 0.1 0.2 0.0 0.0 0.4 0.7 0.8 3.2
0.2 0.2 0.2 0.2 0.2 0.2 0.3 2.2 4.3 8.6 2.8 4.2 17.7 9.4 12.4 8.7 4.8 5.1 2.6 3.9 2.4 1.4 0.6 0.6 0.6 1.2 1.3
1.2 0.5 0.8 1.6 2.3 2.9 5.6 5.6 6.3 7.3 8.6 7.8 11.7 10.5 11.6 10.7 7.6 4.9 6.7 6.1 4.7 6.5 4.5 2.2 3.0 1.7 2.2
3.3 2.8 4.0 5.4 5.7 7.1 10.6 9.2 10.3 8.2 6.5 6.2 7.6 9.1 9.1 5.1 8.4 7.2 5.8 10.6 10.3 9.9 9.6 5.0 1.7 0.9 0.8
3.7 3.9 4.2 6.3 6.7 8.4 11.8 11.2 10.3 7.4 5.8 6.0 5.7 4.0 4.4 5.7 8.5 5.9 9.7 8.3 10.9 14.8 12.5 6.8 5.2 2.2 1.6
5.9 6.3 8.1 10.0 12.5 13.8 13.9 12.7 11.5 8.2 9.2 6.6 6.7 7.5 8.0 5.6 9.9 12.4 10.9 11.6 14.2 16.0 13.5 7.9 7.1 4.2 0.2
8.9 9.0 11.2 13.8 15.3 13.8 12.5 11.0 9.4 8.1 6.6 6.3 8.6 11.0 12.8 8.0 7.0 10.0 15.9 14.5 12.0 12.8 13.6 8.8 8.7 7.0 0.8

GFSFLT2_prec_snow_156.txt.gz
Snowfall_Accumulation
1.1 0.0 0.0 0.0 0.0 0.0 0.0 0.0 0.0 0.0 0.0 0.0 0.0 0.0 0.0 0.0 0.0 0.0 0.0 0.0 0.0 0.0 0.0 0.0 0.0 0.0 0.0
0.1 0.0 0.0 0.0 0.0 0.0 0.0 0.0 0.0 0.0 0.0 0.0 0.0 0.0 0.0 0.0 0.1 0.0 0.0 0.0 0.0 0.0 0.0 0.0 0.0 0.0 0.0
0.1 0.0 0.0 0.0 0.0 0.0 0.0 0.0 0.0 0.0 0.0 0.0 0.0 0.0 0.0 0.0 0.0 0.4 0.2 0.0 0.0 0.0 0.0 0.0 0.0 0.0 0.0
0.1 1.2 0.3 0.1 0.4 0.2 0.0 0.0 0.0 0.0 0.0 0.0 0.0 0.0 0.0 0.0 0.0 0.0 0.0 0.0 0.0 0.1 0.0 0.0 0.0 0.0 0.0
2.7 1.7 1.4 0.0 0.0 0.0 0.1 0.0 0.1 0.0 0.0 0.0 0.0 0.0 0.0 0.0 0.0 0.0 0.0 0.1 0.1 0.2 0.2 0.1 0.2 0.0 0.0
4.6 0.9 0.1 0.1 0.0 0.2 1.3 1.3 1.4 0.0 0.2 0.2 0.0 0.0 0.0 0.0 0.0 0.0 0.1 0.2 0.0 0.5 0.6 0.7 0.0 0.0 0.0
0.5 0.3 0.4 0.1 1.9 2.5 1.8 3.3 2.3 0.0 0.3 0.4 0.0 0.0 0.0 0.0 0.0 0.0 0.1 0.1 0.2 0.4 0.7 0.6 0.7 0.0 0.0
0.2 0.4 1.1 0.7 1.4 2.6 3.4 2.0 0.4 0.1 0.3 1.8 0.2 0.1 0.0 0.0 0.0 0.0 0.0 0.2 0.4 0.7 0.7 0.7 0.8 0.6 0.3
0.6 0.5 0.3 0.0 0.0 2.3 2.8 3.1 2.1 0.2 0.1 0.7 0.3 0.4 0.2 0.1 0.0 0.0 0.4 0.1 0.6 0.4 0.6 0.4 0.6 0.3 0.0
0.1 0.1 0.0 0.0 0.0 0.6 5.4 10.4 5.2 3.6 0.1 4.3 1.7 1.4 5.1 2.1 1.7 1.4 0.1 0.0 0.0 0.1 0.3 0.5 0.4 0.7 1.0
0.0 0.0 0.0 0.0 0.2 0.6 2.4 8.9 11.5 7.1 0.2 8.8 10.0 1.2 8.4 5.3 3.5 3.7 2.9 0.1 0.2 0.0 0.0 0.4 0.7 0.8 3.2
0.2 0.2 0.2 0.2 0.2 0.2 0.3 2.2 4.3 8.6 2.8 4.2 17.7 9.4 12.4 8.7 4.8 5.1 2.6 3.9 2.4 1.4 0.6 0.6 0.6 1.2 1.3
1.2 0.5 0.8 1.6 2.3 2.9 5.6 5.6 6.3 7.3 8.6 7.8 11.7 10.5 11.6 10.7 7.6 4.9 6.7 6.1 4.7 6.5 4.5 2.2 3.0 1.7 2.2
3.3 2.8 4.0 5.4 5.7 7.1 10.6 9.2 10.3 8.2 6.5 6.2 7.6 9.1 9.1 5.1 8.4 7.2 5.8 10.6 10.3 9.9 9.6 5.0 1.7 0.9 0.8
3.7 3.9 4.2 6.3 6.7 8.4 11.8 11.2 10.3 7.4 5.8 6.0 5.7 4.0 4.4 5.7 8.5 5.9 9.7 8.3 10.9 14.8 12.5 6.8 5.2 2.2 1.6
5.9 6.3 8.1 10.0 12.5 13.8 13.9 12.7 11.5 8.2 9.2 6.6 6.7 7.5 8.0 5.6 9.9 12.4 10.9 11.6 14.2 16.0 13.5 7.9 7.1 4.2 0.2
8.9 9.0 11.2 13.8 15.3 13.8 12.5 11.0 9.4 8.1 6.6 6.3 8.6 11.0 12.8 8.0 7.0 10.0 15.9 14.5 12.0 12.8 13.6 8.8 9.1 7.0 0.8

GFSFLT2_prec_snow_159.txt.gz
Snowfall_Accumulation
1.1 0.0 0.0 0.0 0.0 0.0 0.0 0.0 0.0 0.0 0.0 0.0 0.0 0.0 0.0 0.0 0.0 0.0 0.0 0.0 0.0 0.0 0.0 0.0 0.0 0.0 0.0
0.1 0.0 0.0 0.0 0.0 0.0 0.0 0.0 0.0 0.0 0.0 0.0 0.0 0.0 0.0 0.0 0.1 0.0 0.0 0.0 0.0 0.0 0.0 0.0 0.0 0.0 0.0
0.1 0.0 0.0 0.0 0.0 0.0 0.0 0.0 0.0 0.0 0.0 0.0 0.0 0.0 0.0 0.0 0.0 0.4 0.2 0.0 0.0 0.0 0.0 0.0 0.0 0.0 0.0
0.1 1.2 0.3 0.1 0.4 0.2 0.0 0.0 0.0 0.0 0.0 0.0 0.0 0.0 0.0 0.0 0.0 0.0 0.0 0.0 0.0 0.1 0.0 0.0 0.0 0.0 0.0
2.7 1.7 1.4 0.0 0.0 0.0 0.1 0.0 0.1 0.0 0.0 0.0 0.0 0.0 0.0 0.0 0.0 0.0 0.0 0.1 0.1 0.2 0.2 0.1 0.2 0.0 0.0
4.6 0.9 0.1 0.1 0.0 0.2 1.3 1.3 1.4 0.0 0.2 0.2 0.0 0.0 0.0 0.0 0.0 0.0 0.1 0.2 0.0 0.5 0.6 0.7 0.0 0.0 0.0
0.5 0.3 0.4 0.1 1.9 2.5 1.8 3.3 2.3 0.0 0.3 0.4 0.0 0.0 0.0 0.0 0.0 0.0 0.1 0.1 0.2 0.4 0.7 0.6 0.7 0.0 0.0
0.2 0.4 1.1 0.7 1.4 2.6 3.4 2.0 0.4 0.1 0.3 1.8 0.2 0.1 0.0 0.0 0.0 0.0 0.0 0.2 0.4 0.7 0.7 0.7 0.8 0.6 0.3
0.6 0.5 0.3 0.0 0.0 2.3 2.8 3.1 2.1 0.2 0.1 0.7 0.3 0.4 0.2 0.1 0.0 0.0 0.4 0.1 0.6 0.4 0.6 0.4 0.6 0.3 0.0
0.1 0.1 0.0 0.0 0.0 0.6 5.4 10.4 5.2 3.6 0.1 4.3 1.7 1.4 5.1 2.1 1.7 1.4 0.1 0.0 0.0 0.1 0.3 0.5 0.4 0.7 1.0
0.0 0.0 0.0 0.0 0.2 0.6 2.4 8.9 11.5 7.1 0.2 8.8 10.0 1.2 8.4 5.3 3.5 3.7 2.9 0.1 0.2 0.0 0.0 0.4 0.7 0.8 3.2
0.2 0.2 0.2 0.2 0.2 0.2 0.3 2.2 4.3 8.6 2.8 4.2 17.7 9.4 12.4 8.7 4.8 5.1 2.6 3.9 2.4 1.4 0.6 0.6 0.6 1.2 1.3
1.2 0.5 1.0 1.6 2.3 2.9 5.6 5.6 6.3 7.3 8.6 7.8 11.7 10.5 11.6 10.7 7.6 4.9 6.7 6.1 4.7 6.5 4.5 2.2 3.0 1.7 2.2
3.3 2.8 4.0 5.4 5.7 7.1 10.6 9.2 10.3 8.2 6.5 6.2 7.6 9.1 9.1 5.1 8.4 7.2 5.8 10.6 10.3 9.9 9.6 5.0 1.7 0.9 0.8
3.7 3.9 4.2 6.3 6.7 8.4 11.8 11.2 10.3 7.4 5.8 6.0 5.7 4.0 4.4 5.7 8.5 5.9 9.7 8.3 10.9 14.8 12.5 6.8 5.2 2.2 1.6
5.9 6.3 8.1 10.0 12.5 13.8 13.9 12.7 11.5 8.2 9.2 6.6 6.7 7.5 8.0 5.6 9.9 12.4 10.9 11.6 14.2 16.0 13.5 7.9 7.1 4.2 0.2
8.9 9.0 11.2 13.8 15.3 13.8 12.5 11.0 9.4 8.1 6.6 6.3 8.6 11.1 12.8 8.0 7.0 10.0 15.9 14.5 12.0 12.8 13.6 8.8 9.1 7.0 0.8

GFSFLT2_prec_snow_162.txt.gz
Snowfall_Accumulation
1.1 0.0 0.0 0.0 0.0 0.0 0.0 0.0 0.0 0.0 0.0 0.0 0.0 0.0 0.0 0.0 0.0 0.0 0.0 0.0 0.0 0.0 0.0 0.0 0.0 0.0 0.0
0.1 0.0 0.0 0.0 0.0 0.0 0.0 0.0 0.0 0.0 0.0 0.0 0.0 0.0 0.0 0.0 0.1 0.0 0.0 0.0 0.0 0.0 0.0 0.0 0.0 0.0 0.0
0.1 0.0 0.0 0.0 0.0 0.0 0.0 0.0 0.0 0.0 0.0 0.0 0.0 0.0 0.0 0.0 0.0 0.4 0.2 0.0 0.0 0.0 0.0 0.0 0.0 0.0 0.0
0.1 1.2 0.3 0.1 0.4 0.2 0.0 0.0 0.0 0.0 0.0 0.0 0.0 0.0 0.0 0.0 0.0 0.0 0.0 0.0 0.0 0.1 0.0 0.0 0.0 0.0 0.0
2.7 1.7 1.4 0.0 0.0 0.0 0.1 0.0 0.1 0.0 0.0 0.0 0.0 0.0 0.0 0.0 0.0 0.0 0.0 0.1 0.1 0.2 0.2 0.1 0.2 0.0 0.0
4.6 0.9 0.1 0.1 0.0 0.2 1.3 1.3 1.4 0.0 0.2 0.2 0.0 0.0 0.0 0.0 0.0 0.0 0.1 0.2 0.0 0.5 0.6 0.7 0.0 0.0 0.0
0.5 0.3 0.4 0.1 1.9 2.5 1.8 3.3 2.3 0.0 0.3 0.4 0.0 0.0 0.0 0.0 0.0 0.0 0.1 0.1 0.2 0.4 0.7 0.6 0.7 0.0 0.0
0.2 0.4 1.1 0.7 1.4 2.6 3.4 2.0 0.4 0.1 0.3 1.8 0.2 0.1 0.0 0.0 0.0 0.0 0.0 0.2 0.4 0.7 0.7 0.7 0.8 0.6 0.3
0.6 0.5 0.3 0.0 0.0 2.3 2.8 3.1 2.1 0.2 0.1 0.7 0.3 0.4 0.2 0.1 0.0 0.0 0.4 0.1 0.6 0.4 0.6 0.4 0.6 0.3 0.0
0.1 0.1 0.0 0.0 0.0 0.6 5.4 10.4 5.2 3.6 0.1 4.3 1.7 1.4 5.1 2.1 1.7 1.4 0.1 0.0 0.0 0.1 0.3 0.5 0.4 0.7 1.0
0.0 0.0 0.0 0.0 0.2 0.6 2.4 8.9 11.5 7.1 0.2 8.8 10.0 1.2 8.4 5.3 3.5 3.7 2.9 0.1 0.2 0.0 0.0 0.4 0.7 0.8 3.2
0.2 0.2 0.2 0.2 0.2 0.2 0.3 2.2 4.3 8.6 2.8 4.2 17.7 9.4 12.4 8.7 4.8 5.1 2.6 3.9 2.4 1.4 0.6 0.6 0.6 1.2 1.3
1.2 0.5 1.0 1.6 2.3 3.2 5.6 5.6 6.4 7.3 8.6 7.8 11.7 10.5 11.6 10.7 7.6 4.9 6.7 6.1 4.7 6.5 4.5 2.2 3.0 1.7 2.2
3.9 3.2 4.3 5.4 5.7 7.1 10.6 9.2 10.3 8.2 6.5 6.2 7.6 9.1 9.1 5.1 8.4 7.2 5.8 10.6 10.3 9.9 9.6 5.0 1.7 0.9 0.8
3.7 3.9 4.2 6.3 6.7 8.4 11.8 11.2 10.3 7.4 5.8 6.0 5.7 4.0 4.4 5.7 8.5 5.9 9.7 8.3 10.9 14.8 12.5 6.8 5.2 2.2 1.6
5.9 6.3 8.1 10.0 12.5 13.8 13.9 12.7 11.5 8.2 9.2 6.6 6.7 7.5 8.0 5.6 9.9 12.4 10.9 11.6 14.2 16.0 13.5 8.0 7.1 4.2 0.2
8.9 9.0 11.2 13.8 15.3 13.8 12.5 11.0 9.4 8.1 6.6 6.3 8.6 11.1 12.8 8.0 7.0 10.0 15.9 14.5 12.0 12.8 13.6 8.8 9.1 7.0 0.8

GFSFLT2_prec_snow_165.txt.gz
Snowfall_Accumulation
1.1 0.0 0.0 0.0 0.0 0.0 0.0 0.0 0.0 0.0 0.0 0.0 0.0 0.0 0.0 0.0 0.0 0.0 0.0 0.0 0.0 0.0 0.0 0.0 0.0 0.0 0.0
0.1 0.0 0.0 0.0 0.0 0.0 0.0 0.0 0.0 0.0 0.0 0.0 0.0 0.0 0.0 0.0 0.1 0.0 0.0 0.0 0.0 0.0 0.0 0.0 0.0 0.0 0.0
0.1 0.0 0.0 0.0 0.0 0.0 0.0 0.0 0.0 0.0 0.0 0.0 0.0 0.0 0.0 0.0 0.0 0.4 0.2 0.0 0.0 0.0 0.0 0.0 0.0 0.0 0.0
0.1 1.2 0.3 0.1 0.4 0.2 0.0 0.0 0.0 0.0 0.0 0.0 0.0 0.0 0.0 0.0 0.0 0.0 0.0 0.0 0.0 0.1 0.0 0.0 0.0 0.0 0.0
2.7 1.7 1.4 0.0 0.0 0.0 0.1 0.0 0.1 0.0 0.0 0.0 0.0 0.0 0.0 0.0 0.0 0.0 0.0 0.1 0.1 0.2 0.2 0.1 0.2 0.0 0.0
4.6 0.9 0.1 0.1 0.0 0.2 1.3 1.3 1.4 0.0 0.2 0.2 0.0 0.0 0.0 0.0 0.0 0.0 0.1 0.2 0.0 0.5 0.6 0.7 0.0 0.0 0.0
0.5 0.3 0.4 0.1 1.9 2.5 1.8 3.3 2.3 0.0 0.3 0.4 0.0 0.0 0.0 0.0 0.0 0.0 0.1 0.1 0.2 0.4 0.7 0.6 0.7 0.0 0.0
0.2 0.4 1.1 0.7 1.4 2.6 3.4 2.0 0.4 0.1 0.3 1.8 0.2 0.1 0.0 0.0 0.0 0.0 0.0 0.2 0.4 0.7 0.7 0.7 0.8 0.6 0.3
0.6 0.5 0.3 0.0 0.0 2.3 2.8 3.1 2.1 0.2 0.1 0.7 0.3 0.4 0.2 0.1 0.0 0.0 0.4 0.1 0.6 0.4 0.6 0.4 0.6 0.3 0.0
0.1 0.1 0.0 0.0 0.0 0.6 5.4 10.4 5.2 3.6 0.1 4.3 1.7 1.4 5.1 2.1 1.7 1.4 0.1 0.0 0.0 0.1 0.3 0.5 0.4 0.7 1.0
0.0 0.0 0.0 0.0 0.2 0.6 2.4 8.9 11.5 7.1 0.2 8.8 10.0 1.2 8.4 5.3 3.5 3.7 2.9 0.1 0.2 0.0 0.0 0.4 0.7 0.8 3.2
0.2 0.2 0.2 0.2 0.2 0.2 0.3 2.2 4.3 8.6 2.8 4.2 17.7 9.4 12.4 8.7 4.8 5.1 2.6 3.9 2.4 1.4 0.6 0.6 0.6 1.2 1.3
1.7 1.2 2.2 1.6 2.3 4.7 6.8 7.0 7.8 8.3 8.6 7.8 11.7 11.1 12.0 10.7 7.8 4.9 6.7 6.1 4.7 6.5 4.5 2.2 3.0 1.7 2.2
4.4 3.8 4.9 6.0 6.1 7.3 10.6 9.2 10.3 8.2 6.5 6.2 7.6 9.1 9.1 5.1 8.4 7.2 5.8 10.6 10.3 9.9 9.6 5.0 1.7 0.9 0.8
3.7 3.9 4.2 6.3 6.7 8.4 11.8 11.2 10.3 7.4 5.8 6.0 5.7 4.0 4.4 5.7 8.5 5.9 9.7 8.3 10.9 14.8 12.5 6.8 5.2 2.2 1.6
5.9 6.3 8.1 10.0 12.5 13.8 13.9 12.7 11.5 8.2 9.2 6.6 6.7 7.5 8.0 5.6 9.9 12.4 10.9 11.6 14.2 16.0 13.5 8.0 7.1 4.2 0.2
8.9 9.0 11.2 13.8 15.3 13.8 12.5 11.0 9.4 8.1 6.6 6.3 8.6 11.1 12.8 8.0 7.0 10.0 15.9 14.5 12.0 12.8 13.6 8.8 9.1 7.0 0.8

GFSFLT2_prec_snow_168.txt.gz
Snowfall_Accumulation
1.1 0.0 0.0 0.0 0.0 0.0 0.0 0.0 0.0 0.0 0.0 0.0 0.0 0.0 0.0 0.0 0.0 0.0 0.0 0.0 0.0 0.0 0.0 0.0 0.0 0.0 0.0
0.1 0.0 0.0 0.0 0.0 0.0 0.0 0.0 0.0 0.0 0.0 0.0 0.0 0.0 0.0 0.0 0.1 0.0 0.0 0.0 0.0 0.0 0.0 0.0 0.0 0.0 0.0
0.1 0.0 0.0 0.0 0.0 0.0 0.0 0.0 0.0 0.0 0.0 0.0 0.0 0.0 0.0 0.0 0.0 0.4 0.2 0.0 0.0 0.0 0.0 0.0 0.0 0.0 0.0
0.1 1.2 0.3 0.1 0.4 0.2 0.0 0.0 0.0 0.0 0.0 0.0 0.0 0.0 0.0 0.0 0.0 0.0 0.0 0.0 0.0 0.1 0.0 0.0 0.0 0.0 0.0
2.7 1.7 1.4 0.0 0.0 0.0 0.1 0.0 0.1 0.0 0.0 0.0 0.0 0.0 0.0 0.0 0.0 0.0 0.0 0.1 0.1 0.2 0.2 0.1 0.2 0.0 0.0
4.6 0.9 0.1 0.1 0.0 0.2 1.3 1.3 1.4 0.0 0.2 0.2 0.0 0.0 0.0 0.0 0.0 0.0 0.1 0.2 0.0 0.5 0.6 0.7 0.0 0.0 0.0
0.5 0.3 0.4 0.1 1.9 2.5 1.8 3.3 2.3 0.0 0.3 0.4 0.0 0.0 0.0 0.0 0.0 0.0 0.1 0.1 0.2 0.4 0.7 0.6 0.7 0.0 0.0
0.2 0.4 1.1 0.7 1.4 2.6 3.4 2.0 0.4 0.1 0.3 1.8 0.2 0.1 0.0 0.0 0.0 0.0 0.0 0.2 0.4 0.7 0.7 0.7 0.8 0.6 0.3
0.6 0.5 0.3 0.0 0.0 2.3 2.8 3.1 2.1 0.2 0.1 0.7 0.3 0.4 0.2 0.1 0.0 0.0 0.4 0.1 0.6 0.4 0.6 0.4 0.6 0.3 0.0
0.1 0.1 0.0 0.0 0.0 0.6 5.4 10.4 5.2 3.6 0.1 4.3 1.7 1.4 5.1 2.1 1.7 1.4 0.1 0.0 0.0 0.1 0.3 0.5 0.4 0.7 1.0
0.0 0.0 0.0 0.0 0.2 0.6 2.4 8.9 11.5 7.1 0.2 8.8 10.0 1.2 8.4 5.3 3.5 3.7 2.9 0.1 0.2 0.0 0.0 0.4 0.7 0.8 3.2
0.2 0.2 0.2 0.2 0.2 0.2 0.3 2.2 4.3 8.6 2.8 4.2 17.7 9.4 12.4 8.7 4.8 5.1 2.6 3.9 2.4 1.4 0.6 0.6 0.6 1.2 1.3
1.7 1.2 2.2 1.6 2.4 4.7 6.8 7.0 7.8 9.0 9.0 8.0 11.7 11.5 12.0 11.1 7.8 4.9 6.7 6.1 4.7 6.5 4.5 2.2 3.0 1.7 2.2
4.4 3.8 4.9 6.0 6.1 7.3 10.6 9.2 10.3 8.2 6.5 6.5 7.8 9.2 9.1 5.1 9.0 7.6 6.3 10.8 10.3 9.9 9.6 5.0 1.7 0.9 0.8
3.7 3.9 4.2 6.3 6.7 8.4 11.8 11.2 10.3 7.4 5.8 6.0 5.7 4.0 4.4 5.7 8.5 5.9 9.7 8.3 10.9 14.8 12.5 6.8 5.2 2.2 1.6
5.9 6.3 8.1 10.0 12.5 13.8 13.9 12.7 11.5 8.2 9.2 6.6 6.7 7.5 8.0 5.6 9.9 12.4 10.9 11.6 14.2 16.0 13.5 8.0 7.1 4.2 0.2
8.9 9.0 11.2 13.8 15.3 13.8 12.5 11.0 9.4 8.1 6.6 6.3 8.7 11.1 12.8 8.0 7.0 10.0 15.9 14.5 12.0 12.9 13.6 8.9 9.1 7.0 0.8

GFSFLT2_prec_snow_171.txt.gz
Snowfall_Accumulation
1.1 0.0 0.0 0.0 0.0 0.0 0.0 0.0 0.0 0.0 0.0 0.0 0.0 0.0 0.0 0.0 0.0 0.0 0.0 0.0 0.0 0.0 0.0 0.0 0.0 0.0 0.0
0.1 0.0 0.0 0.0 0.0 0.0 0.0 0.0 0.0 0.0 0.0 0.0 0.0 0.0 0.0 0.0 0.1 0.0 0.0 0.0 0.0 0.0 0.0 0.0 0.0 0.0 0.0
0.1 0.0 0.0 0.0 0.0 0.0 0.0 0.0 0.0 0.0 0.0 0.0 0.0 0.0 0.0 0.0 0.0 0.4 0.2 0.0 0.0 0.0 0.0 0.0 0.0 0.0 0.0
0.1 1.2 0.3 0.1 0.4 0.2 0.0 0.0 0.0 0.0 0.0 0.0 0.0 0.0 0.0 0.0 0.0 0.0 0.0 0.0 0.0 0.1 0.0 0.0 0.0 0.0 0.0
2.7 1.7 1.4 0.0 0.0 0.0 0.1 0.0 0.1 0.0 0.0 0.0 0.0 0.0 0.0 0.0 0.0 0.0 0.0 0.1 0.1 0.2 0.2 0.1 0.2 0.0 0.0
4.6 0.9 0.1 0.1 0.0 0.2 1.3 1.3 1.4 0.0 0.2 0.2 0.0 0.0 0.0 0.0 0.0 0.0 0.1 0.2 0.0 0.5 0.6 0.7 0.0 0.0 0.0
0.5 0.3 0.4 0.1 1.9 2.5 1.8 3.3 2.3 0.0 0.3 0.4 0.0 0.0 0.0 0.0 0.0 0.0 0.1 0.1 0.2 0.4 0.7 0.6 0.7 0.0 0.0
0.2 0.4 1.1 0.7 1.4 2.6 3.4 2.0 0.4 0.1 0.3 1.8 0.2 0.1 0.0 0.0 0.0 0.0 0.0 0.2 0.4 0.7 0.7 0.7 0.8 0.6 0.3
0.6 0.5 0.3 0.0 0.0 2.3 2.8 3.1 2.1 0.2 0.1 0.7 0.3 0.4 0.2 0.1 0.0 0.0 0.4 0.1 0.6 0.4 0.6 0.4 0.6 0.3 0.0
0.1 0.1 0.0 0.0 0.0 0.6 5.4 10.4 5.2 3.6 0.1 4.3 1.7 1.4 5.1 2.1 1.7 1.4 0.1 0.0 0.0 0.1 0.3 0.5 0.4 0.7 1.0
0.0 0.0 0.0 0.0 0.2 0.6 2.4 8.9 11.5 7.1 0.2 8.8 10.0 1.2 8.4 5.3 3.5 3.7 2.9 0.1 0.2 0.0 0.0 0.4 0.7 0.8 3.2
0.2 0.2 0.2 0.2 0.2 0.2 0.3 2.2 4.3 8.6 2.8 4.2 17.7 9.4 12.4 8.7 4.8 5.1 2.6 3.9 2.4 1.4 0.6 0.6 0.6 1.2 1.3
1.7 1.2 2.2 1.6 2.4 4.7 6.8 7.0 7.9 9.0 9.0 8.0 11.7 11.5 12.0 11.1 7.8 4.9 6.7 6.1 4.7 6.5 4.5 2.2 3.0 1.7 2.2
4.4 3.8 4.9 6.0 6.1 7.3 10.6 9.2 10.3 8.2 6.5 6.5 7.8 9.2 9.1 5.1 9.0 7.6 6.3 10.8 10.3 9.9 9.6 5.0 1.7 0.9 0.8
3.7 3.9 4.2 6.3 6.7 8.4 11.8 11.2 10.3 7.4 5.8 6.0 5.7 4.0 4.4 5.7 8.5 5.9 9.7 8.3 10.9 14.8 12.5 6.8 5.2 2.2 1.6
5.9 6.3 8.1 10.0 12.5 13.8 13.9 12.7 11.5 8.2 9.2 6.6 6.7 7.5 8.0 5.6 9.9 12.4 10.9 11.6 14.2 16.0 13.5 8.0 7.1 4.2 0.2
8.9 9.0 11.2 13.8 15.3 13.8 12.5 11.0 9.4 8.1 6.6 6.3 8.7 11.1 12.8 8.0 7.0 10.0 15.9 14.5 12.0 12.9 13.6 8.9 9.1 7.0 0.8

GFSFLT2_prec_snow_174.txt.gz
Snowfall_Accumulation
1.1 0.0 0.0 0.0 0.0 0.0 0.0 0.0 0.0 0.0 0.0 0.0 0.0 0.0 0.0 0.0 0.0 0.0 0.0 0.0 0.0 0.0 0.0 0.0 0.0 0.0 0.0
0.1 0.0 0.0 0.0 0.0 0.0 0.0 0.0 0.0 0.0 0.0 0.0 0.0 0.0 0.0 0.0 0.1 0.0 0.0 0.0 0.0 0.0 0.0 0.0 0.0 0.0 0.0
0.1 0.0 0.0 0.0 0.0 0.0 0.0 0.0 0.0 0.0 0.0 0.0 0.0 0.0 0.0 0.0 0.0 0.4 0.2 0.0 0.0 0.0 0.0 0.0 0.0 0.0 0.0
0.1 1.2 0.3 0.1 0.4 0.2 0.0 0.0 0.0 0.0 0.0 0.0 0.0 0.0 0.0 0.0 0.0 0.0 0.0 0.0 0.0 0.1 0.0 0.0 0.0 0.0 0.0
2.7 1.7 1.4 0.0 0.0 0.0 0.1 0.0 0.1 0.0 0.0 0.0 0.0 0.0 0.0 0.0 0.0 0.0 0.0 0.1 0.1 0.2 0.2 0.1 0.2 0.0 0.0
4.6 0.9 0.1 0.1 0.0 0.2 1.3 1.3 1.4 0.0 0.2 0.2 0.0 0.0 0.0 0.0 0.0 0.0 0.1 0.2 0.0 0.5 0.6 0.7 0.0 0.0 0.0
0.5 0.3 0.4 0.1 1.9 2.5 1.8 3.3 2.3 0.0 0.3 0.4 0.0 0.0 0.0 0.0 0.0 0.0 0.1 0.1 0.2 0.4 0.7 0.6 0.7 0.0 0.0
0.2 0.4 1.1 0.7 1.4 2.6 3.4 2.0 0.4 0.1 0.3 1.8 0.2 0.1 0.0 0.0 0.0 0.0 0.0 0.2 0.4 0.7 0.7 0.7 0.8 0.6 0.3
0.6 0.5 0.3 0.0 0.0 2.3 2.8 3.1 2.1 0.2 0.1 0.7 0.3 0.4 0.2 0.1 0.0 0.0 0.4 0.1 0.6 0.4 0.6 0.4 0.6 0.3 0.0
0.1 0.1 0.0 0.0 0.0 0.6 5.4 10.4 5.2 3.6 0.1 4.3 1.7 1.4 5.1 2.1 1.7 1.4 0.1 0.0 0.0 0.1 0.3 0.5 0.4 0.7 1.0
0.0 0.0 0.0 0.0 0.2 0.6 2.4 8.9 11.5 7.1 0.2 8.8 10.0 1.2 8.4 5.3 3.5 3.7 2.9 0.1 0.2 0.0 0.0 0.4 0.7 0.8 3.2
0.2 0.2 0.2 0.2 0.2 0.2 0.3 2.2 4.3 8.6 2.8 4.2 17.7 9.4 12.4 8.7 4.8 5.1 2.6 3.9 2.4 1.4 0.6 0.6 0.6 1.2 1.3
1.7 1.2 2.2 1.6 2.4 4.7 6.8 7.0 7.9 9.0 9.1 8.0 11.7 11.5 12.0 11.1 7.8 4.9 6.7 6.1 4.7 6.5 4.5 2.2 3.0 1.7 2.2
4.4 3.8 4.9 6.0 6.1 7.3 10.6 9.2 10.3 8.2 6.5 6.5 7.8 9.2 9.1 5.1 9.0 7.6 6.3 10.8 10.3 9.9 9.6 5.0 1.7 0.9 0.8
3.7 3.9 4.2 6.3 6.7 8.4 11.8 11.2 10.3 7.4 5.8 6.0 5.7 4.0 4.4 5.7 8.5 5.9 9.7 8.3 10.9 14.8 12.5 6.8 5.2 2.2 1.6
5.9 6.3 8.1 10.0 12.5 13.8 13.9 12.7 11.5 8.2 9.2 6.6 6.7 7.5 8.0 5.6 9.9 12.4 10.9 11.6 14.2 16.0 13.5 8.0 7.1 4.2 0.2
8.9 9.0 11.2 13.8 15.3 13.8 12.5 11.0 9.4 8.1 6.6 6.3 8.7 11.1 12.8 8.0 7.0 10.0 15.9 14.5 12.0 12.9 13.6 8.9 9.1 7.0 0.8

GFSFLT2_prec_snow_177.txt.gz
Snowfall_Accumulation
1.1 0.0 0.0 0.0 0.0 0.0 0.0 0.0 0.0 0.0 0.0 0.0 0.0 0.0 0.0 0.0 0.0 0.0 0.0 0.0 0.0 0.0 0.0 0.0 0.0 0.0 0.0
0.1 0.0 0.0 0.0 0.0 0.0 0.0 0.0 0.0 0.0 0.0 0.0 0.0 0.0 0.0 0.0 0.1 0.0 0.0 0.0 0.0 0.0 0.0 0.0 0.0 0.0 0.0
0.1 0.0 0.0 0.0 0.0 0.0 0.0 0.0 0.0 0.0 0.0 0.0 0.0 0.0 0.0 0.0 0.0 0.4 0.2 0.0 0.0 0.0 0.0 0.0 0.0 0.0 0.0
0.1 1.2 0.3 0.1 0.4 0.2 0.0 0.0 0.0 0.0 0.0 0.0 0.0 0.0 0.0 0.0 0.0 0.0 0.0 0.0 0.0 0.1 0.0 0.0 0.0 0.0 0.0
2.7 1.7 1.4 0.0 0.0 0.0 0.1 0.0 0.1 0.0 0.0 0.0 0.0 0.0 0.0 0.0 0.0 0.0 0.0 0.1 0.1 0.2 0.2 0.1 0.2 0.0 0.0
4.6 0.9 0.1 0.1 0.0 0.2 1.3 1.3 1.4 0.0 0.2 0.2 0.0 0.0 0.0 0.0 0.0 0.0 0.1 0.2 0.0 0.5 0.6 0.7 0.0 0.0 0.0
0.5 0.3 0.4 0.1 1.9 2.5 1.8 3.3 2.3 0.0 0.3 0.4 0.0 0.0 0.0 0.0 0.0 0.0 0.1 0.1 0.2 0.4 0.7 0.6 0.7 0.0 0.0
0.2 0.4 1.1 0.7 1.4 2.6 3.4 2.0 0.4 0.1 0.3 1.8 0.2 0.1 0.0 0.0 0.0 0.0 0.0 0.2 0.4 0.7 0.7 0.7 0.8 0.6 0.3
0.6 0.5 0.3 0.0 0.0 2.3 2.8 3.1 2.1 0.2 0.1 0.7 0.3 0.4 0.2 0.1 0.0 0.0 0.4 0.1 0.6 0.4 0.6 0.4 0.6 0.3 0.0
0.1 0.1 0.0 0.0 0.0 0.6 5.4 10.4 5.2 3.6 0.1 4.3 1.7 1.4 5.1 2.1 1.7 1.4 0.1 0.0 0.0 0.1 0.3 0.5 0.4 0.7 1.0
0.0 0.0 0.0 0.0 0.2 0.7 2.5 8.9 11.5 7.1 0.2 8.8 10.0 1.2 8.4 5.3 3.5 3.7 2.9 0.1 0.2 0.0 0.0 0.4 0.7 0.8 3.2
0.2 0.2 0.2 0.2 0.2 0.3 0.4 2.3 4.3 8.7 2.8 4.4 17.7 9.4 12.4 8.7 4.8 5.1 2.6 3.9 2.4 1.4 0.6 0.6 0.6 1.2 1.3
1.7 1.2 2.2 1.6 2.4 4.7 6.8 7.0 7.9 9.1 9.1 8.0 11.7 11.6 12.2 11.2 7.9 4.9 6.8 6.1 4.7 6.5 4.5 2.2 3.0 1.7 2.2
4.4 3.8 4.9 6.0 6.1 7.3 10.6 9.2 10.3 8.2 6.5 6.5 7.8 9.2 9.1 5.1 9.0 7.6 6.3 10.8 10.3 9.9 9.6 5.0 1.7 0.9 0.8
3.7 3.9 4.2 6.3 6.7 8.4 11.8 11.2 10.3 7.4 5.8 6.0 5.7 4.0 4.4 5.7 8.5 5.9 9.7 8.3 10.9 14.8 12.5 6.8 5.2 2.2 1.6
5.9 6.3 8.1 10.0 12.5 13.8 13.9 12.7 11.5 8.2 9.2 6.6 6.7 7.5 8.0 5.6 9.9 12.4 10.9 11.6 14.2 16.0 13.5 8.0 7.1 4.2 0.2
8.9 9.0 11.2 13.8 15.3 13.8 12.5 11.0 9.4 8.1 6.6 6.3 8.7 11.1 12.8 8.0 7.0 10.0 15.9 14.5 12.0 12.9 13.6 8.9 9.1 7.0 0.8

GFSFLT2_prec_snow_180.txt.gz
Snowfall_Accumulation
1.1 0.0 0.0 0.0 0.0 0.0 0.0 0.0 0.0 0.0 0.0 0.0 0.0 0.0 0.0 0.0 0.0 0.0 0.0 0.0 0.0 0.0 0.0 0.0 0.0 0.0 0.0
0.1 0.0 0.0 0.0 0.0 0.0 0.0 0.0 0.0 0.0 0.0 0.0 0.0 0.0 0.0 0.0 0.1 0.0 0.0 0.0 0.0 0.0 0.0 0.0 0.0 0.0 0.0
0.1 0.0 0.0 0.0 0.0 0.0 0.0 0.0 0.0 0.0 0.0 0.0 0.0 0.0 0.0 0.0 0.0 0.4 0.2 0.0 0.0 0.0 0.0 0.0 0.0 0.0 0.0
0.1 1.2 0.3 0.1 0.4 0.2 0.0 0.0 0.0 0.0 0.0 0.0 0.0 0.0 0.0 0.0 0.0 0.0 0.0 0.0 0.0 0.1 0.0 0.0 0.0 0.0 0.0
2.7 1.7 1.4 0.0 0.0 0.0 0.1 0.0 0.1 0.0 0.0 0.0 0.0 0.0 0.0 0.0 0.0 0.0 0.0 0.1 0.1 0.2 0.2 0.1 0.2 0.0 0.0
4.6 0.9 0.1 0.1 0.0 0.2 1.3 1.3 1.4 0.0 0.2 0.2 0.0 0.0 0.0 0.0 0.0 0.0 0.1 0.2 0.0 0.5 0.6 0.7 0.0 0.0 0.0
0.5 0.3 0.4 0.1 1.9 2.5 1.8 3.3 2.3 0.0 0.3 0.4 0.0 0.0 0.0 0.0 0.0 0.0 0.1 0.1 0.2 0.4 0.7 0.6 0.7 0.0 0.0
0.2 0.4 1.1 0.7 1.4 2.6 3.4 2.0 0.4 0.1 0.3 1.8 0.2 0.1 0.0 0.0 0.0 0.0 0.0 0.2 0.4 0.7 0.7 0.7 0.8 0.6 0.3
0.6 0.5 0.3 0.0 0.0 2.3 2.8 3.1 2.1 0.2 0.1 0.7 0.3 0.4 0.2 0.1 0.0 0.0 0.4 0.1 0.6 0.4 0.6 0.4 0.6 0.3 0.0
0.1 0.1 0.0 0.0 0.0 0.6 5.4 10.4 5.2 3.6 0.1 4.3 1.7 1.4 5.1 2.1 1.7 1.4 0.1 0.0 0.0 0.1 0.3 0.5 0.4 0.7 1.0
0.0 0.0 0.0 0.0 0.2 0.7 2.5 9.0 11.6 7.2 0.2 8.8 10.0 1.2 8.4 5.3 3.5 3.7 2.9 0.1 0.2 0.0 0.0 0.4 0.7 0.8 3.2
0.2 0.2 0.2 0.2 0.2 0.3 0.4 2.3 4.3 8.9 2.9 4.6 17.8 9.5 12.5 8.8 4.8 5.1 2.6 3.9 2.4 1.4 0.6 0.6 0.6 1.2 1.3
1.7 1.2 2.2 1.6 2.4 4.7 6.8 7.0 7.9 9.1 9.1 8.0 11.7 11.6 12.3 11.4 8.0 5.0 6.9 6.1 4.7 6.5 4.5 2.2 3.0 1.7 2.2
4.4 3.8 4.9 6.0 6.1 7.3 10.6 9.2 10.3 8.2 6.5 6.5 7.8 9.2 9.1 5.1 9.0 7.8 6.3 10.8 10.3 9.9 9.6 5.0 1.7 0.9 0.8
3.7 3.9 4.2 6.3 6.7 8.4 11.8 11.2 10.3 7.4 5.8 6.0 5.7 4.0 4.4 5.7 8.5 5.9 9.7 8.3 10.9 14.8 12.5 6.8 5.2 2.2 1.6
5.9 6.3 8.1 10.0 12.5 13.8 13.9 12.7 11.5 8.2 9.2 6.6 6.7 7.5 8.0 5.6 9.9 12.4 10.9 11.6 14.2 16.0 13.5 8.0 7.1 4.2 0.2
8.9 9.0 11.2 13.8 15.3 13.8 12.5 11.1 9.4 8.1 6.6 6.3 8.7 11.1 12.8 8.0 7.0 10.0 15.9 14.5 12.0 12.9 13.6 8.9 9.1 7.0 0.8

GFSFLT2_prec_snow_183.txt.gz
Snowfall_Accumulation
1.1 0.0 0.0 0.0 0.0 0.0 0.0 0.0 0.0 0.0 0.0 0.0 0.0 0.0 0.0 0.0 0.0 0.0 0.0 0.0 0.0 0.0 0.0 0.0 0.0 0.0 0.0
0.1 0.0 0.0 0.0 0.0 0.0 0.0 0.0 0.0 0.0 0.0 0.0 0.0 0.0 0.0 0.0 0.1 0.0 0.0 0.0 0.0 0.0 0.0 0.0 0.0 0.0 0.0
0.1 0.0 0.0 0.0 0.0 0.0 0.0 0.0 0.0 0.0 0.0 0.0 0.0 0.0 0.0 0.0 0.0 0.4 0.2 0.0 0.0 0.0 0.0 0.0 0.0 0.0 0.0
0.1 1.2 0.3 0.1 0.4 0.2 0.0 0.0 0.0 0.0 0.0 0.0 0.0 0.0 0.0 0.0 0.0 0.0 0.0 0.0 0.0 0.1 0.0 0.0 0.0 0.0 0.0
2.7 1.7 1.4 0.0 0.0 0.0 0.1 0.0 0.1 0.0 0.0 0.0 0.0 0.0 0.0 0.0 0.0 0.0 0.0 0.1 0.1 0.2 0.2 0.1 0.2 0.0 0.0
4.6 0.9 0.1 0.1 0.0 0.2 1.3 1.3 1.4 0.0 0.2 0.2 0.0 0.0 0.0 0.0 0.0 0.0 0.1 0.2 0.0 0.5 0.6 0.7 0.0 0.0 0.0
0.5 0.3 0.4 0.1 1.9 2.5 1.8 3.3 2.3 0.0 0.3 0.4 0.0 0.0 0.0 0.0 0.0 0.0 0.1 0.1 0.2 0.4 0.7 0.6 0.7 0.0 0.0
0.2 0.4 1.1 0.7 1.4 2.6 3.4 2.0 0.4 0.1 0.3 1.8 0.2 0.1 0.0 0.0 0.0 0.0 0.0 0.2 0.4 0.7 0.7 0.7 0.8 0.6 0.3
0.6 0.5 0.3 0.0 0.0 2.3 2.8 3.1 2.1 0.2 0.1 0.7 0.3 0.4 0.2 0.1 0.0 0.0 0.4 0.1 0.6 0.4 0.6 0.4 0.6 0.3 0.0
0.1 0.1 0.0 0.0 0.0 0.6 5.4 10.4 5.2 3.6 0.1 4.3 1.7 1.4 5.1 2.1 1.7 1.4 0.1 0.0 0.0 0.1 0.3 0.5 0.4 0.7 1.0
0.0 0.0 0.0 0.0 0.2 0.7 2.5 9.0 11.6 7.2 0.2 9.0 10.0 1.2 8.4 5.3 3.5 3.7 2.9 0.1 0.2 0.0 0.0 0.4 0.7 0.8 3.2
0.2 0.2 0.2 0.2 0.2 0.3 0.4 2.3 4.3 8.9 2.9 4.8 18.1 9.6 12.7 8.9 4.8 5.1 2.6 3.9 2.4 1.4 0.6 0.6 0.6 1.2 1.3
1.7 1.2 2.2 1.6 2.4 4.7 6.8 7.0 7.9 9.1 9.1 8.0 11.8 11.6 12.5 11.5 8.1 5.0 6.9 6.1 4.7 6.5 4.5 2.2 3.0 1.7 2.2
4.4 3.8 4.9 6.0 6.1 7.3 10.6 9.2 10.3 8.2 6.5 6.5 7.8 9.2 9.1 5.1 9.0 7.8 6.3 10.8 10.3 9.9 9.6 5.0 1.7 0.9 0.8
3.7 3.9 4.2 6.3 6.7 8.4 11.8 11.2 10.3 7.4 5.8 6.0 5.7 4.0 4.4 5.7 8.5 5.9 9.7 8.3 10.9 14.8 12.5 6.8 5.2 2.2 1.6
5.9 6.3 8.1 10.0 12.5 13.8 13.9 12.8 11.5 8.2 9.2 6.6 6.7 7.5 8.0 5.6 9.9 12.5 10.9 11.6 14.2 16.0 13.5 8.0 7.1 4.2 0.2
8.9 9.0 11.2 13.8 15.3 13.8 12.5 11.1 9.4 8.1 6.6 6.3 8.7 11.1 12.9 8.0 7.0 10.0 15.9 14.5 12.0 12.9 13.6 8.9 9.1 7.0 0.8

GFSFLT2_prec_snow_186.txt.gz
Snowfall_Accumulation
1.1 0.0 0.0 0.0 0.0 0.0 0.0 0.0 0.0 0.0 0.0 0.0 0.0 0.0 0.0 0.0 0.0 0.0 0.0 0.0 0.0 0.0 0.0 0.0 0.0 0.0 0.0
0.1 0.0 0.0 0.0 0.0 0.0 0.0 0.0 0.0 0.0 0.0 0.0 0.0 0.0 0.0 0.0 0.1 0.0 0.0 0.0 0.0 0.0 0.0 0.0 0.0 0.0 0.0
0.1 0.0 0.0 0.0 0.0 0.0 0.0 0.0 0.0 0.0 0.0 0.0 0.0 0.0 0.0 0.0 0.0 0.4 0.2 0.0 0.0 0.0 0.0 0.0 0.0 0.0 0.0
0.1 1.2 0.3 0.1 0.4 0.2 0.0 0.0 0.0 0.0 0.0 0.0 0.0 0.0 0.0 0.0 0.0 0.0 0.0 0.0 0.0 0.1 0.0 0.0 0.0 0.0 0.0
2.7 1.7 1.4 0.0 0.0 0.0 0.1 0.0 0.1 0.0 0.0 0.0 0.0 0.0 0.0 0.0 0.0 0.0 0.0 0.1 0.1 0.2 0.2 0.1 0.2 0.0 0.0
4.6 0.9 0.1 0.1 0.0 0.2 1.3 1.3 1.4 0.0 0.2 0.2 0.0 0.0 0.0 0.0 0.0 0.0 0.1 0.2 0.0 0.5 0.6 0.7 0.0 0.0 0.0
0.5 0.3 0.4 0.1 1.9 2.5 1.8 3.3 2.3 0.0 0.3 0.4 0.0 0.0 0.0 0.0 0.0 0.0 0.1 0.1 0.2 0.4 0.7 0.6 0.7 0.0 0.0
0.2 0.4 1.1 0.7 1.4 2.6 3.4 2.0 0.4 0.1 0.3 1.8 0.2 0.1 0.0 0.0 0.0 0.0 0.0 0.2 0.4 0.7 0.7 0.7 0.8 0.6 0.3
0.6 0.5 0.3 0.0 0.0 2.3 2.8 3.1 2.1 0.2 0.1 0.7 0.3 0.4 0.2 0.1 0.0 0.0 0.4 0.1 0.6 0.4 0.6 0.4 0.6 0.3 0.0
0.1 0.1 0.0 0.0 0.0 0.6 5.4 10.4 5.2 3.6 0.1 4.3 1.7 1.4 5.1 2.1 1.7 1.4 0.1 0.0 0.0 0.1 0.3 0.5 0.4 0.7 1.0
0.0 0.0 0.0 0.0 0.2 0.7 2.5 9.0 11.6 7.2 0.2 9.0 10.0 1.2 8.4 5.3 3.5 3.7 2.9 0.1 0.2 0.0 0.0 0.4 0.7 0.8 3.2
0.2 0.2 0.2 0.2 0.2 0.3 0.4 2.3 4.3 8.9 2.9 4.8 18.2 9.6 12.9 8.9 4.8 5.1 2.6 3.9 2.4 1.4 0.6 0.6 0.6 1.2 1.3
1.7 1.2 2.2 1.6 2.4 4.7 6.8 7.0 7.9 9.1 9.1 8.0 11.8 11.7 12.5 11.6 8.1 5.0 6.9 6.1 4.7 6.5 4.5 2.2 3.0 1.7 2.2
4.4 3.8 4.9 6.0 6.1 7.3 10.6 9.2 10.3 8.2 6.5 6.5 7.8 9.2 9.2 5.1 9.0 7.8 6.3 10.8 10.3 9.9 9.6 5.0 1.7 0.9 0.8
3.7 3.9 4.2 6.3 6.7 8.4 11.8 11.2 10.3 7.4 5.8 6.0 5.7 4.0 4.4 5.7 8.5 5.9 9.7 8.3 10.9 14.8 12.5 6.8 5.2 2.2 1.6
5.9 6.3 8.1 10.0 12.5 13.8 13.9 12.8 11.5 8.2 9.2 6.6 6.7 7.5 8.0 5.6 9.9 12.5 10.9 11.6 14.2 16.0 13.5 8.0 7.1 4.2 0.2
8.9 9.0 11.2 13.8 15.3 13.8 12.5 11.1 9.4 8.1 6.6 6.3 8.7 11.2 12.9 8.0 7.0 10.0 15.9 14.5 12.0 12.9 13.6 8.9 9.1 7.0 0.8

GFSFLT2_prec_snow_192.txt.gz
Snowfall_Accumulation
1.1 0.0 0.0 0.0 0.0 0.0 0.0 0.0 0.0 0.0 0.0 0.0 0.0 0.0 0.0 0.0 0.0 0.0 0.0 0.0 0.0 0.0 0.0 0.0 0.0 0.0 0.0
0.1 0.0 0.0 0.0 0.0 0.0 0.0 0.0 0.0 0.0 0.0 0.0 0.0 0.0 0.0 0.0 0.1 0.0 0.0 0.0 0.0 0.0 0.0 0.0 0.0 0.0 0.0
0.1 0.0 0.0 0.0 0.0 0.0 0.0 0.0 0.0 0.0 0.0 0.0 0.0 0.0 0.0 0.0 0.0 0.4 0.2 0.0 0.0 0.0 0.0 0.0 0.0 0.0 0.0
0.1 1.2 0.3 0.1 0.4 0.2 0.0 0.0 0.0 0.0 0.0 0.0 0.0 0.0 0.0 0.0 0.0 0.0 0.0 0.0 0.0 0.1 0.0 0.0 0.0 0.0 0.0
2.7 1.7 1.4 0.0 0.0 0.0 0.1 0.0 0.1 0.0 0.0 0.0 0.0 0.0 0.0 0.0 0.0 0.0 0.0 0.1 0.1 0.2 0.2 0.1 0.2 0.0 0.0
4.6 0.9 0.1 0.1 0.0 0.2 1.3 1.3 1.4 0.0 0.2 0.2 0.0 0.0 0.0 0.0 0.0 0.0 0.1 0.2 0.0 0.5 0.6 0.7 0.0 0.0 0.0
0.5 0.3 0.4 0.1 1.9 2.5 1.8 3.3 2.3 0.0 0.3 0.4 0.0 0.0 0.0 0.0 0.0 0.0 0.1 0.1 0.2 0.4 0.7 0.6 0.7 0.0 0.0
0.2 0.4 1.1 0.7 1.4 2.6 3.4 2.0 0.4 0.1 0.3 1.8 0.2 0.1 0.0 0.0 0.0 0.0 0.0 0.2 0.4 0.7 0.7 0.7 0.8 0.6 0.3
0.6 0.5 0.3 0.0 0.0 2.3 2.8 3.1 2.1 0.2 0.1 0.7 0.3 0.4 0.2 0.1 0.0 0.0 0.4 0.1 0.6 0.4 0.6 0.4 0.6 0.3 0.0
0.1 0.1 0.0 0.0 0.0 0.6 5.4 10.4 5.2 3.6 0.1 4.3 1.7 1.4 5.1 2.1 1.7 1.4 0.1 0.0 0.0 0.1 0.3 0.5 0.4 0.7 1.0
0.0 0.0 0.0 0.0 0.2 0.7 2.5 9.0 11.6 7.2 0.2 9.0 10.1 1.2 8.4 5.3 3.5 3.7 2.9 0.1 0.2 0.0 0.0 0.4 0.7 0.8 3.2
0.2 0.2 0.2 0.2 0.2 0.3 0.4 2.3 4.3 8.9 2.9 4.8 18.2 9.6 12.9 9.0 4.8 5.1 2.6 3.9 2.4 1.4 0.6 0.6 0.6 1.2 1.3
1.7 1.2 2.2 1.6 2.4 4.7 6.8 7.0 7.9 9.1 9.1 8.0 11.8 11.7 12.7 11.7 8.1 5.0 6.9 6.1 4.7 6.5 4.5 2.2 3.0 1.7 2.2
4.4 3.8 4.9 6.0 6.1 7.3 10.6 9.2 10.3 8.2 6.5 6.5 7.8 9.2 9.3 5.2 9.1 7.8 6.3 10.8 10.3 9.9 9.6 5.0 1.7 0.9 0.8
3.7 3.9 4.2 6.4 6.8 8.4 11.9 11.2 10.3 7.4 5.8 6.0 5.7 4.0 4.4 5.8 8.6 5.9 9.7 8.3 10.9 14.8 12.5 6.8 5.2 2.2 1.6
6.2 6.4 8.1 10.2 12.7 14.1 14.1 12.9 11.5 8.2 9.2 6.6 6.7 7.6 8.0 5.6 9.9 12.5 10.9 11.6 14.2 16.0 13.6 8.0 7.1 4.2 0.2
9.1 9.1 11.2 13.8 15.6 14.2 12.7 11.2 9.5 8.1 6.6 6.3 8.7 11.2 13.0 8.0 7.0 10.0 15.9 14.5 12.0 12.9 13.6 8.9 9.1 7.0 0.8